<?xml version='1.0' encoding='UTF-8'?>
<gpx xmlns="http://www.topografix.com/GPX/1/1" creator="www.balnam.be" version="1.1" xmlns:xsi="http://www.w3.org/2001/XMLSchema-instance" xsi:schemaLocation="http://www.topografix.com/GPX/1/1 http://www.topografix.com/GPX/1/1/gpx.xsd">
<trk>
<name>hllsv14</name>
<cmt>v</cmt>
<desc>Saint-Vaast Chemin n°14 Rue de péronnes</desc>
<link href="https://chemins.be/saintvaast/chemin/14"/><trkseg>
<trkpt lat="50.440693" lon="4.161713"><time>2026-05-03T06:14:09Z</time></trkpt>
<trkpt lat="50.446292" lon="4.160771"><time>2026-05-03T06:24:09Z</time></trkpt>
</trkseg>
</trk>
<trk>
<name>hllsv17</name>
<cmt>q</cmt>
<desc>Saint-Vaast Chemin n°17 </desc>
<link href="https://chemins.be/saintvaast/chemin/17"/><trkseg>
<trkpt lat="50.454871" lon="4.164544"><time>2026-05-03T06:14:09Z</time></trkpt>
<trkpt lat="50.455183" lon="4.167951"><time>2026-05-03T06:24:09Z</time></trkpt>
</trkseg>
</trk>
<trk>
<name>hllsv2</name>
<cmt>r</cmt>
<desc>Saint-Vaast Chemin n°2 </desc>
<link href="https://chemins.be/saintvaast/chemin/2"/><trkseg>
<trkpt lat="50.462381" lon="4.177422"><time>2026-05-03T06:14:09Z</time></trkpt>
<trkpt lat="50.462354" lon="4.176393"><time>2026-05-03T06:24:09Z</time></trkpt>
<trkpt lat="50.461992" lon="4.175743"><time>2026-05-03T06:34:09Z</time></trkpt>
</trkseg></trk>
<trk>
<name>hllsv2</name>
<cmt>q</cmt>
<desc>Saint-Vaast Chemin n°2 </desc>
<link href="https://chemins.be/saintvaast/chemin/2"/><trkseg>
<trkpt lat="50.461992" lon="4.175743"><time>2026-05-03T06:34:09Z</time></trkpt>
<trkpt lat="50.461797" lon="4.175068"><time>2026-05-03T06:44:09Z</time></trkpt>
<trkpt lat="50.460947" lon="4.173861"><time>2026-05-03T06:54:09Z</time></trkpt>
<trkpt lat="50.459294" lon="4.173882"><time>2026-05-03T07:04:09Z</time></trkpt>
</trkseg>
</trk>
<trk>
<name>hllsv21</name>
<cmt>s</cmt>
<desc>Saint-Vaast Chemin n°21 </desc>
<link href="https://chemins.be/saintvaast/chemin/21"/><trkseg>
<trkpt lat="50.460708" lon="4.171071"><time>2026-05-03T06:14:09Z</time></trkpt>
<trkpt lat="50.459041" lon="4.171597"><time>2026-05-03T06:24:09Z</time></trkpt>
<trkpt lat="50.458099" lon="4.172262"><time>2026-05-03T06:34:09Z</time></trkpt>
</trkseg>
</trk>
<trk>
<name>hllsv23</name>
<cmt>q</cmt>
<desc>Saint-Vaast Sentier n°23 </desc>
<link href="https://chemins.be/saintvaast/sentier/23"/><trkseg>
<trkpt lat="50.451852" lon="4.160798"><time>2026-05-03T06:14:09Z</time></trkpt>
<trkpt lat="50.450745" lon="4.160278"><time>2026-05-03T06:24:09Z</time></trkpt>
<trkpt lat="50.449997" lon="4.161324"><time>2026-05-03T06:34:09Z</time></trkpt>
</trkseg>
</trk>
<trk>
<name>hllsv24</name>
<cmt>v</cmt>
<desc>Saint-Vaast Sentier n°24 </desc>
<link href="https://chemins.be/saintvaast/sentier/24"/><trkseg>
<trkpt lat="50.450380" lon="4.163400"><time>2026-05-03T06:14:09Z</time></trkpt>
<trkpt lat="50.449314" lon="4.163765"><time>2026-05-03T06:24:09Z</time></trkpt>
<trkpt lat="50.448713" lon="4.163840"><time>2026-05-03T06:34:09Z</time></trkpt>
<trkpt lat="50.445727" lon="4.167316"><time>2026-05-03T06:44:09Z</time></trkpt>
<trkpt lat="50.443964" lon="4.168968"><time>2026-05-03T06:54:09Z</time></trkpt>
</trkseg>
</trk>
<trk>
<name>hllsv26</name>
<cmt>q</cmt>
<desc>Saint-Vaast Sentier n°26 </desc>
<link href="https://chemins.be/saintvaast/sentier/26"/><trkseg>
<trkpt lat="50.453613" lon="4.155455"><time>2026-05-03T06:14:09Z</time></trkpt>
<trkpt lat="50.453630" lon="4.155964"><time>2026-05-03T06:24:09Z</time></trkpt>
<trkpt lat="50.453809" lon="4.156500"><time>2026-05-03T06:34:09Z</time></trkpt>
</trkseg>
</trk>
<trk>
<name>hllsv27</name>
<cmt>q</cmt>
<desc>Saint-Vaast Sentier n°27 </desc>
<link href="https://chemins.be/saintvaast/sentier/27"/><trkseg>
<trkpt lat="50.455680" lon="4.158852"><time>2026-05-03T06:14:09Z</time></trkpt>
<trkpt lat="50.455516" lon="4.158402"><time>2026-05-03T06:24:09Z</time></trkpt>
<trkpt lat="50.455024" lon="4.155827"><time>2026-05-03T06:34:09Z</time></trkpt>
<trkpt lat="50.455175" lon="4.155601"><time>2026-05-03T06:44:09Z</time></trkpt>
<trkpt lat="50.455065" lon="4.154024"><time>2026-05-03T06:54:09Z</time></trkpt>
</trkseg>
</trk>
<trk>
<name>hllsv28</name>
<cmt>r</cmt>
<desc>Saint-Vaast Sentier n°28 Rue Chapelle Langlet / Rue du Moulin à Eau</desc>
<link href="https://chemins.be/saintvaast/sentier/28"/><trkseg>
<trkpt lat="50.452876" lon="4.161359"><time>2026-05-03T06:14:09Z</time></trkpt>
<trkpt lat="50.453155" lon="4.163325"><time>2026-05-03T06:24:09Z</time></trkpt>
<trkpt lat="50.454494" lon="4.168372"><time>2026-05-03T06:34:09Z</time></trkpt>
</trkseg></trk>
<trk>
<name>hllsv28</name>
<cmt>q</cmt>
<desc>Saint-Vaast Sentier n°28 Rue Chapelle Langlet / Rue du Moulin à Eau</desc>
<link href="https://chemins.be/saintvaast/sentier/28"/><trkseg>
<trkpt lat="50.454494" lon="4.168372"><time>2026-05-03T06:34:09Z</time></trkpt>
<trkpt lat="50.455144" lon="4.168972"><time>2026-05-03T06:44:09Z</time></trkpt>
</trkseg>
</trk>
<trk>
<name>hllsv29</name>
<cmt>r</cmt>
<desc>Saint-Vaast Sentier n°29 Rue de Fanuelz</desc>
<link href="https://chemins.be/saintvaast/sentier/29"/><trkseg>
<trkpt lat="50.453030" lon="4.170545"><time>2026-05-03T06:14:09Z</time></trkpt>
<trkpt lat="50.452617" lon="4.170964"><time>2026-05-03T06:24:09Z</time></trkpt>
<trkpt lat="50.451927" lon="4.174413"><time>2026-05-03T06:34:09Z</time></trkpt>
</trkseg>
</trk>
<trk>
<name>hllsv3</name>
<cmt>v</cmt>
<desc>Saint-Vaast Chemin n°3 </desc>
<link href="https://chemins.be/saintvaast/chemin/3"/><trkseg>
<trkpt lat="50.453360" lon="4.172250"><time>2026-05-03T06:14:09Z</time></trkpt>
<trkpt lat="50.453549" lon="4.173942"><time>2026-05-03T06:24:09Z</time></trkpt>
<trkpt lat="50.453583" lon="4.175390"><time>2026-05-03T06:34:09Z</time></trkpt>
</trkseg>
</trk>
<trk>
<name>hllsv30</name>
<cmt>v</cmt>
<desc>Saint-Vaast Sentier n°30 </desc>
<link href="https://chemins.be/saintvaast/sentier/30"/><trkseg>
<trkpt lat="50.463119" lon="4.183311"><time>2026-05-03T06:14:09Z</time></trkpt>
<trkpt lat="50.463145" lon="4.182381"><time>2026-05-03T06:24:09Z</time></trkpt>
<trkpt lat="50.462964" lon="4.181565"><time>2026-05-03T06:34:09Z</time></trkpt>
<trkpt lat="50.462233" lon="4.180018"><time>2026-05-03T06:44:09Z</time></trkpt>
<trkpt lat="50.461112" lon="4.178066"><time>2026-05-03T06:54:09Z</time></trkpt>
<trkpt lat="50.459281" lon="4.173903"><time>2026-05-03T07:04:09Z</time></trkpt>
</trkseg></trk>
<trk>
<name>hllsv30</name>
<cmt>r</cmt>
<desc>Saint-Vaast Sentier n°30 </desc>
<link href="https://chemins.be/saintvaast/sentier/30"/><trkseg>
<trkpt lat="50.459281" lon="4.173903"><time>2026-05-03T07:04:09Z</time></trkpt>
<trkpt lat="50.458270" lon="4.172788"><time>2026-05-03T07:14:09Z</time></trkpt>
<trkpt lat="50.457486" lon="4.170888"><time>2026-05-03T07:24:09Z</time></trkpt>
<trkpt lat="50.457072" lon="4.169126"><time>2026-05-03T07:34:09Z</time></trkpt>
<trkpt lat="50.456407" lon="4.167946"><time>2026-05-03T07:44:09Z</time></trkpt>
<trkpt lat="50.455948" lon="4.167780"><time>2026-05-03T07:54:09Z</time></trkpt>
<trkpt lat="50.455213" lon="4.168027"><time>2026-05-03T08:04:09Z</time></trkpt>
</trkseg></trk>
<trk>
<name>hllsv30</name>
<cmt>q</cmt>
<desc>Saint-Vaast Sentier n°30 </desc>
<link href="https://chemins.be/saintvaast/sentier/30"/><trkseg>
<trkpt lat="50.455213" lon="4.168027"><time>2026-05-03T08:04:09Z</time></trkpt>
<trkpt lat="50.454828" lon="4.164247"><time>2026-05-03T08:14:09Z</time></trkpt>
</trkseg>
</trk>
<trk>
<name>hllsv31</name>
<cmt>r</cmt>
<desc>Saint-Vaast Sentier n°31 Rue des Quatre Ruelles</desc>
<link href="https://chemins.be/saintvaast/sentier/31"/><trkseg>
<trkpt lat="50.452488" lon="4.165462"><time>2026-05-03T06:14:09Z</time></trkpt>
<trkpt lat="50.454882" lon="4.164587"><time>2026-05-03T06:24:09Z</time></trkpt>
</trkseg>
</trk>
<trk>
<name>hllsv32</name>
<cmt>r</cmt>
<desc>Saint-Vaast Sentier n°32 Rue du Jeu de balle / Rue du Four a Chaux</desc>
<link href="https://chemins.be/saintvaast/sentier/32"/><trkseg>
<trkpt lat="50.455642" lon="4.160642"><time>2026-05-03T06:14:09Z</time></trkpt>
<trkpt lat="50.455817" lon="4.160484"><time>2026-05-03T06:24:09Z</time></trkpt>
<trkpt lat="50.455677" lon="4.159701"><time>2026-05-03T06:34:09Z</time></trkpt>
</trkseg></trk>
<trk>
<name>hllsv32</name>
<cmt>q</cmt>
<desc>Saint-Vaast Sentier n°32 Rue du Jeu de balle / Rue du Four a Chaux</desc>
<link href="https://chemins.be/saintvaast/sentier/32"/><trkseg>
<trkpt lat="50.455677" lon="4.159701"><time>2026-05-03T06:34:09Z</time></trkpt>
<trkpt lat="50.458740" lon="4.159857"><time>2026-05-03T06:44:09Z</time></trkpt>
</trkseg>
</trk>
<trk>
<name>hllsv33</name>
<cmt>q</cmt>
<desc>Saint-Vaast Sentier n°33 </desc>
<link href="https://chemins.be/saintvaast/sentier/33"/><trkseg>
<trkpt lat="50.456741" lon="4.158265"><time>2026-05-03T06:14:09Z</time></trkpt>
<trkpt lat="50.457521" lon="4.157978"><time>2026-05-03T06:24:09Z</time></trkpt>
<trkpt lat="50.459047" lon="4.156600"><time>2026-05-03T06:34:09Z</time></trkpt>
<trkpt lat="50.459833" lon="4.154870"><time>2026-05-03T06:44:09Z</time></trkpt>
</trkseg>
</trk>
<trk>
<name>hllsv34</name>
<cmt>v</cmt>
<desc>Saint-Vaast Sentier n°34 Impasse Augustin Duriaux</desc>
<link href="https://chemins.be/saintvaast/sentier/34"/><trkseg>
<trkpt lat="50.455947" lon="4.167051"><time>2026-05-03T06:14:09Z</time></trkpt>
<trkpt lat="50.455757" lon="4.167168"><time>2026-05-03T06:24:09Z</time></trkpt>
<trkpt lat="50.455735" lon="4.167110"><time>2026-05-03T06:34:09Z</time></trkpt>
</trkseg></trk>
<trk>
<name>hllsv34</name>
<cmt>q</cmt>
<desc>Saint-Vaast Sentier n°34 Impasse Augustin Duriaux</desc>
<link href="https://chemins.be/saintvaast/sentier/34"/><trkseg>
<trkpt lat="50.455735" lon="4.167110"><time>2026-05-03T06:34:09Z</time></trkpt>
<trkpt lat="50.455411" lon="4.166307"><time>2026-05-03T06:44:09Z</time></trkpt>
<trkpt lat="50.455038" lon="4.165894"><time>2026-05-03T06:54:09Z</time></trkpt>
<trkpt lat="50.454987" lon="4.165031"><time>2026-05-03T07:04:09Z</time></trkpt>
<trkpt lat="50.455062" lon="4.164870"><time>2026-05-03T07:14:09Z</time></trkpt>
<trkpt lat="50.455076" lon="4.164800"><time>2026-05-03T07:24:09Z</time></trkpt>
</trkseg>
</trk>
<trk>
<name>hllsv35</name>
<cmt>q</cmt>
<desc>Saint-Vaast Sentier n°35 Rue du Moulin à Eau</desc>
<link href="https://chemins.be/saintvaast/sentier/35"/><trkseg>
<trkpt lat="50.456145" lon="4.175223"><time>2026-05-03T06:14:09Z</time></trkpt>
<trkpt lat="50.456343" lon="4.172691"><time>2026-05-03T06:24:09Z</time></trkpt>
</trkseg></trk>
<trk>
<name>hllsv35</name>
<cmt>r</cmt>
<desc>Saint-Vaast Sentier n°35 Rue du Moulin à Eau</desc>
<link href="https://chemins.be/saintvaast/sentier/35"/><trkseg>
<trkpt lat="50.456343" lon="4.172691"><time>2026-05-03T06:24:09Z</time></trkpt>
<trkpt lat="50.455911" lon="4.172353"><time>2026-05-03T06:34:09Z</time></trkpt>
<trkpt lat="50.455714" lon="4.171626"><time>2026-05-03T06:44:09Z</time></trkpt>
<trkpt lat="50.455914" lon="4.170870"><time>2026-05-03T06:54:09Z</time></trkpt>
<trkpt lat="50.455565" lon="4.169445"><time>2026-05-03T07:04:09Z</time></trkpt>
<trkpt lat="50.455161" lon="4.168972"><time>2026-05-03T07:14:09Z</time></trkpt>
</trkseg></trk>
<trk>
<name>hllsv35</name>
<cmt>v</cmt>
<desc>Saint-Vaast Sentier n°35 Rue du Moulin à Eau</desc>
<link href="https://chemins.be/saintvaast/sentier/35"/><trkseg>
<trkpt lat="50.455161" lon="4.168972"><time>2026-05-03T07:14:09Z</time></trkpt>
<trkpt lat="50.455182" lon="4.168117"><time>2026-05-03T07:24:09Z</time></trkpt>
<trkpt lat="50.455253" lon="4.168025"><time>2026-05-03T07:34:09Z</time></trkpt>
<trkpt lat="50.455165" lon="4.167922"><time>2026-05-03T07:44:09Z</time></trkpt>
<trkpt lat="50.454803" lon="4.167823"><time>2026-05-03T07:54:09Z</time></trkpt>
<trkpt lat="50.454475" lon="4.168037"><time>2026-05-03T08:04:09Z</time></trkpt>
</trkseg>
</trk>
<trk>
<name>hllsv36</name>
<cmt>q</cmt>
<desc>Saint-Vaast Sentier n°36 </desc>
<link href="https://chemins.be/saintvaast/sentier/36"/><trkseg>
<trkpt lat="50.455822" lon="4.171846"><time>2026-05-03T06:14:09Z</time></trkpt>
<trkpt lat="50.456574" lon="4.172339"><time>2026-05-03T06:24:09Z</time></trkpt>
<trkpt lat="50.458206" lon="4.172532"><time>2026-05-03T06:34:09Z</time></trkpt>
</trkseg>
</trk>
<trk>
<name>hllsv66</name>
<cmt>q</cmt>
<desc>Saint-Vaast Sentier n°66 </desc>
<link href="https://chemins.be/saintvaast/sentier/66"/><trkseg>
<trkpt lat="50.461808" lon="4.175084"><time>2026-05-03T06:14:09Z</time></trkpt>
<trkpt lat="50.464455" lon="4.177621"><time>2026-05-03T06:24:09Z</time></trkpt>
<trkpt lat="50.465676" lon="4.178334"><time>2026-05-03T06:34:09Z</time></trkpt>
<trkpt lat="50.466971" lon="4.179096"><time>2026-05-03T06:44:09Z</time></trkpt>
<trkpt lat="50.467831" lon="4.179568"><time>2026-05-03T06:54:09Z</time></trkpt>
<trkpt lat="50.468353" lon="4.180115"><time>2026-05-03T07:04:09Z</time></trkpt>
</trkseg>
</trk>
<trk>
<name>hllsv67</name>
<cmt>s</cmt>
<desc>Saint-Vaast Sentier n°67 </desc>
<link href="https://chemins.be/saintvaast/sentier/67"/><trkseg>
<trkpt lat="50.460462" lon="4.171575"><time>2026-05-03T06:14:09Z</time></trkpt>
<trkpt lat="50.459656" lon="4.173571"><time>2026-05-03T06:24:09Z</time></trkpt>
<trkpt lat="50.459396" lon="4.173496"><time>2026-05-03T06:34:09Z</time></trkpt>
<trkpt lat="50.459335" lon="4.173861"><time>2026-05-03T06:44:09Z</time></trkpt>
</trkseg></trk>
<trk>
<name>hllsv67</name>
<cmt>q</cmt>
<desc>Saint-Vaast Sentier n°67 </desc>
<link href="https://chemins.be/saintvaast/sentier/67"/><trkseg>
<trkpt lat="50.459335" lon="4.173861"><time>2026-05-03T06:44:09Z</time></trkpt>
<trkpt lat="50.457887" lon="4.175373"><time>2026-05-03T06:54:09Z</time></trkpt>
<trkpt lat="50.457252" lon="4.175287"><time>2026-05-03T07:04:09Z</time></trkpt>
<trkpt lat="50.456828" lon="4.175373"><time>2026-05-03T07:14:09Z</time></trkpt>
<trkpt lat="50.456579" lon="4.176207"><time>2026-05-03T07:24:09Z</time></trkpt>
</trkseg>
</trk>
<trk>
<name>hllsv68</name>
<cmt>s</cmt>
<desc>Saint-Vaast Sentier n°68 </desc>
<link href="https://chemins.be/saintvaast/sentier/68"/><trkseg>
<trkpt lat="50.461261" lon="4.162434"><time>2026-05-03T06:14:09Z</time></trkpt>
<trkpt lat="50.462696" lon="4.159924"><time>2026-05-03T06:24:09Z</time></trkpt>
<trkpt lat="50.463187" lon="4.156748"><time>2026-05-03T06:34:09Z</time></trkpt>
</trkseg>
</trk>
<trk>
<name>hllsv69</name>
<cmt>q</cmt>
<desc>Saint-Vaast Sentier n°69 Chemin de Saint-Vaast à Houdeng</desc>
<link href="https://chemins.be/saintvaast/sentier/69"/><trkseg>
<trkpt lat="50.466793" lon="4.164653"><time>2026-05-03T06:14:09Z</time></trkpt>
<trkpt lat="50.465130" lon="4.164121"><time>2026-05-03T06:24:09Z</time></trkpt>
</trkseg>
</trk>
<trk>
<name>hllsv70</name>
<cmt>v</cmt>
<desc>Saint-Vaast Sentier n°70 Sentier Mayette</desc>
<link href="https://chemins.be/saintvaast/sentier/70"/><trkseg>
<trkpt lat="50.456037" lon="4.154274"><time>2026-05-03T06:14:09Z</time></trkpt>
<trkpt lat="50.456047" lon="4.154594"><time>2026-05-03T06:24:09Z</time></trkpt>
<trkpt lat="50.456057" lon="4.154644"><time>2026-05-03T06:34:09Z</time></trkpt>
<trkpt lat="50.456087" lon="4.154754"><time>2026-05-03T06:44:09Z</time></trkpt>
<trkpt lat="50.456117" lon="4.154864"><time>2026-05-03T06:54:09Z</time></trkpt>
<trkpt lat="50.456127" lon="4.154924"><time>2026-05-03T07:04:09Z</time></trkpt>
<trkpt lat="50.456127" lon="4.154954"><time>2026-05-03T07:14:09Z</time></trkpt>
<trkpt lat="50.456117" lon="4.154974"><time>2026-05-03T07:24:09Z</time></trkpt>
</trkseg></trk>
<trk>
<name>hllsv70</name>
<cmt>q</cmt>
<desc>Saint-Vaast Sentier n°70 Sentier Mayette</desc>
<link href="https://chemins.be/saintvaast/sentier/70"/><trkseg>
<trkpt lat="50.456117" lon="4.154974"><time>2026-05-03T07:24:09Z</time></trkpt>
<trkpt lat="50.456146" lon="4.155109"><time>2026-05-03T07:34:09Z</time></trkpt>
<trkpt lat="50.455825" lon="4.157759"><time>2026-05-03T07:44:09Z</time></trkpt>
</trkseg></trk>
<trk>
<name>hllsv70</name>
<cmt>v</cmt>
<desc>Saint-Vaast Sentier n°70 Sentier Mayette</desc>
<link href="https://chemins.be/saintvaast/sentier/70"/><trkseg>
<trkpt lat="50.455825" lon="4.157759"><time>2026-05-03T07:44:09Z</time></trkpt>
<trkpt lat="50.455996" lon="4.158521"><time>2026-05-03T07:54:09Z</time></trkpt>
</trkseg>
</trk>
<trk>
<name>hllsv8</name>
<cmt>s</cmt>
<desc>Saint-Vaast Chemin n°8 </desc>
<link href="https://chemins.be/saintvaast/chemin/8"/><trkseg>
<trkpt lat="50.461234" lon="4.162391"><time>2026-05-03T06:14:09Z</time></trkpt>
<trkpt lat="50.462627" lon="4.159967"><time>2026-05-03T06:24:09Z</time></trkpt>
<trkpt lat="50.463092" lon="4.157027"><time>2026-05-03T06:34:09Z</time></trkpt>
</trkseg>
</trk>
<trk>
<name>hllsv9</name>
<cmt>v</cmt>
<desc>Saint-Vaast Chemin n°9 Chemin des Sarts</desc>
<link href="https://chemins.be/saintvaast/chemin/9"/><trkseg>
<trkpt lat="50.459355" lon="4.174030"><time>2026-05-03T06:14:09Z</time></trkpt>
<trkpt lat="50.459383" lon="4.174425"><time>2026-05-03T06:24:09Z</time></trkpt>
<trkpt lat="50.459744" lon="4.175099"><time>2026-05-03T06:34:09Z</time></trkpt>
<trkpt lat="50.459933" lon="4.175450"><time>2026-05-03T06:44:09Z</time></trkpt>
<trkpt lat="50.460221" lon="4.175886"><time>2026-05-03T06:54:09Z</time></trkpt>
<trkpt lat="50.460339" lon="4.176097"><time>2026-05-03T07:04:09Z</time></trkpt>
<trkpt lat="50.460709" lon="4.177067"><time>2026-05-03T07:14:09Z</time></trkpt>
<trkpt lat="50.460998" lon="4.177700"><time>2026-05-03T07:24:09Z</time></trkpt>
<trkpt lat="50.461178" lon="4.178023"><time>2026-05-03T07:34:09Z</time></trkpt>
<trkpt lat="50.461651" lon="4.178255"><time>2026-05-03T07:44:09Z</time></trkpt>
<trkpt lat="50.462114" lon="4.178836"><time>2026-05-03T07:54:09Z</time></trkpt>
<trkpt lat="50.462816" lon="4.179396"><time>2026-05-03T08:04:09Z</time></trkpt>
<trkpt lat="50.463978" lon="4.180786"><time>2026-05-03T08:14:09Z</time></trkpt>
</trkseg></trk>
<trk>
<name>hllsv9</name>
<cmt>r</cmt>
<desc>Saint-Vaast Chemin n°9 Chemin des Sarts</desc>
<link href="https://chemins.be/saintvaast/chemin/9"/><trkseg>
<trkpt lat="50.463978" lon="4.180786"><time>2026-05-03T08:14:09Z</time></trkpt>
<trkpt lat="50.464762" lon="4.181685"><time>2026-05-03T08:24:09Z</time></trkpt>
<trkpt lat="50.465078" lon="4.182345"><time>2026-05-03T08:34:09Z</time></trkpt>
</trkseg>
</trk>
<trk>
<name>hllsvi1</name>
<cmt>v</cmt>
<desc>Saint-Vaast Sentier n°i1 </desc>
<link href="https://chemins.be/saintvaast/sentier/i1"/><trkseg>
<trkpt lat="50.460858" lon="4.154222"><time>2026-05-03T06:14:09Z</time></trkpt>
<trkpt lat="50.460849" lon="4.154251"><time>2026-05-03T06:24:09Z</time></trkpt>
<trkpt lat="50.460822" lon="4.154377"><time>2026-05-03T06:34:09Z</time></trkpt>
<trkpt lat="50.460940" lon="4.154645"><time>2026-05-03T06:44:09Z</time></trkpt>
<trkpt lat="50.461165" lon="4.154855"><time>2026-05-03T06:54:09Z</time></trkpt>
<trkpt lat="50.461570" lon="4.155233"><time>2026-05-03T07:04:09Z</time></trkpt>
<trkpt lat="50.462002" lon="4.155696"><time>2026-05-03T07:14:09Z</time></trkpt>
<trkpt lat="50.462210" lon="4.156061"><time>2026-05-03T07:24:09Z</time></trkpt>
<trkpt lat="50.462336" lon="4.156399"><time>2026-05-03T07:34:09Z</time></trkpt>
<trkpt lat="50.462409" lon="4.156694"><time>2026-05-03T07:44:09Z</time></trkpt>
<trkpt lat="50.462472" lon="4.157004"><time>2026-05-03T07:54:09Z</time></trkpt>
<trkpt lat="50.462500" lon="4.157384"><time>2026-05-03T08:04:09Z</time></trkpt>
<trkpt lat="50.462483" lon="4.157821"><time>2026-05-03T08:14:09Z</time></trkpt>
<trkpt lat="50.462429" lon="4.158103"><time>2026-05-03T08:24:09Z</time></trkpt>
<trkpt lat="50.461946" lon="4.159513"><time>2026-05-03T08:34:09Z</time></trkpt>
<trkpt lat="50.461571" lon="4.160571"><time>2026-05-03T08:44:09Z</time></trkpt>
<trkpt lat="50.461086" lon="4.160982"><time>2026-05-03T08:54:09Z</time></trkpt>
<trkpt lat="50.460609" lon="4.160702"><time>2026-05-03T09:04:09Z</time></trkpt>
<trkpt lat="50.460255" lon="4.158943"><time>2026-05-03T09:14:09Z</time></trkpt>
<trkpt lat="50.459913" lon="4.158663"><time>2026-05-03T09:24:09Z</time></trkpt>
<trkpt lat="50.459786" lon="4.157973"><time>2026-05-03T09:34:09Z</time></trkpt>
<trkpt lat="50.459965" lon="4.157339"><time>2026-05-03T09:44:09Z</time></trkpt>
<trkpt lat="50.460387" lon="4.157112"><time>2026-05-03T09:54:09Z</time></trkpt>
<trkpt lat="50.460737" lon="4.157124"><time>2026-05-03T10:04:09Z</time></trkpt>
<trkpt lat="50.460990" lon="4.157447"><time>2026-05-03T10:14:09Z</time></trkpt>
<trkpt lat="50.460910" lon="4.158067"><time>2026-05-03T10:24:09Z</time></trkpt>
<trkpt lat="50.460668" lon="4.158265"><time>2026-05-03T10:34:09Z</time></trkpt>
<trkpt lat="50.460371" lon="4.158267"><time>2026-05-03T10:44:09Z</time></trkpt>
<trkpt lat="50.460208" lon="4.157915"><time>2026-05-03T10:54:09Z</time></trkpt>
<trkpt lat="50.460262" lon="4.157676"><time>2026-05-03T11:04:09Z</time></trkpt>
<trkpt lat="50.460505" lon="4.157632"><time>2026-05-03T11:14:09Z</time></trkpt>
</trkseg>
</trk>
<trk>
<name>hllsvi2</name>
<cmt>v</cmt>
<desc>Saint-Vaast Sentier n°i2 Rue des Queumonts</desc>
<link href="https://chemins.be/saintvaast/sentier/i2"/><trkseg>
<trkpt lat="50.450002" lon="4.161340"><time>2026-05-03T06:14:09Z</time></trkpt>
<trkpt lat="50.450445" lon="4.163295"><time>2026-05-03T06:24:09Z</time></trkpt>
</trkseg>
</trk>
<trk>
<name>hllsvi3</name>
<cmt>v</cmt>
<desc>Saint-Vaast Sentier n°i3 </desc>
<link href="https://chemins.be/saintvaast/sentier/i3"/><trkseg>
<trkpt lat="50.463271" lon="4.156479"><time>2026-05-03T06:14:09Z</time></trkpt>
<trkpt lat="50.462472" lon="4.157004"><time>2026-05-03T06:24:09Z</time></trkpt>
</trkseg>
</trk>
<trk>
<name>hllsvi4</name>
<cmt>v</cmt>
<desc>Saint-Vaast Sentier n°i4 </desc>
<link href="https://chemins.be/saintvaast/sentier/i4"/><trkseg>
<trkpt lat="50.461562" lon="4.160599"><time>2026-05-03T06:14:09Z</time></trkpt>
<trkpt lat="50.461347" lon="4.161178"><time>2026-05-03T06:24:09Z</time></trkpt>
<trkpt lat="50.461140" lon="4.161305"><time>2026-05-03T06:34:09Z</time></trkpt>
<trkpt lat="50.460655" lon="4.161378"><time>2026-05-03T06:44:09Z</time></trkpt>
<trkpt lat="50.459061" lon="4.159695"><time>2026-05-03T06:54:09Z</time></trkpt>
<trkpt lat="50.458889" lon="4.159090"><time>2026-05-03T07:04:09Z</time></trkpt>
<trkpt lat="50.458619" lon="4.158711"><time>2026-05-03T07:14:09Z</time></trkpt>
<trkpt lat="50.458581" lon="4.157683"><time>2026-05-03T07:24:09Z</time></trkpt>
<trkpt lat="50.458820" lon="4.155992"><time>2026-05-03T07:34:09Z</time></trkpt>
<trkpt lat="50.459853" lon="4.155297"><time>2026-05-03T07:44:09Z</time></trkpt>
<trkpt lat="50.460374" lon="4.154901"><time>2026-05-03T07:54:09Z</time></trkpt>
<trkpt lat="50.461129" lon="4.154855"><time>2026-05-03T08:04:09Z</time></trkpt>
</trkseg>
</trk>
<trk>
<name>hllsvi5</name>
<cmt>v</cmt>
<desc>Saint-Vaast Sentier n°i5 </desc>
<link href="https://chemins.be/saintvaast/sentier/i5"/><trkseg>
<trkpt lat="50.461420" lon="4.161529"><time>2026-05-03T06:14:09Z</time></trkpt>
<trkpt lat="50.461140" lon="4.161305"><time>2026-05-03T06:24:09Z</time></trkpt>
</trkseg>
</trk>
<trk>
<name>hllsvi6</name>
<cmt>v</cmt>
<desc>Saint-Vaast Chemin n°i6 </desc>
<link href="https://chemins.be/saintvaast/chemin/i6"/><trkseg>
<trkpt lat="50.459636" lon="4.154819"><time>2026-05-03T06:14:09Z</time></trkpt>
<trkpt lat="50.459907" lon="4.155086"><time>2026-05-03T06:24:09Z</time></trkpt>
<trkpt lat="50.459898" lon="4.155283"><time>2026-05-03T06:34:09Z</time></trkpt>
</trkseg>
</trk>
<trk>
<name>hllsvi7</name>
<cmt>v</cmt>
<desc>Saint-Vaast Sentier n°i7 </desc>
<link href="https://chemins.be/saintvaast/sentier/i7"/><trkseg>
<trkpt lat="50.459678" lon="4.170559"><time>2026-05-03T06:14:09Z</time></trkpt>
<trkpt lat="50.460020" lon="4.170345"><time>2026-05-03T06:24:09Z</time></trkpt>
<trkpt lat="50.460289" lon="4.170468"><time>2026-05-03T06:34:09Z</time></trkpt>
<trkpt lat="50.460498" lon="4.170098"><time>2026-05-03T06:44:09Z</time></trkpt>
</trkseg>
</trk>
<trk>
<name>hllsvi8</name>
<cmt>v</cmt>
<desc>Saint-Vaast Chemin n°i8 </desc>
<link href="https://chemins.be/saintvaast/chemin/i8"/><trkseg>
<trkpt lat="50.460803" lon="4.166415"><time>2026-05-03T06:14:09Z</time></trkpt>
<trkpt lat="50.460954" lon="4.169515"><time>2026-05-03T06:24:09Z</time></trkpt>
<trkpt lat="50.460913" lon="4.170202"><time>2026-05-03T06:34:09Z</time></trkpt>
</trkseg>
</trk>
<trk>
<name>hllsvi9</name>
<cmt>v</cmt>
<desc>Saint-Vaast Sentier n°i9 </desc>
<link href="https://chemins.be/saintvaast/sentier/i9"/><trkseg>
<trkpt lat="50.459302" lon="4.171550"><time>2026-05-03T06:14:09Z</time></trkpt>
<trkpt lat="50.459540" lon="4.171927"><time>2026-05-03T06:24:09Z</time></trkpt>
</trkseg>
</trk>
<trk>
<name>hllsvLv90</name>
<cmt>v</cmt>
<desc>Saint-Vaast Chemin n°Lv90 Pré-RAVeL / Rue Omer Thiriar / Pré-RAVeL L90 ou 422 / RAVeL</desc>
<link href="https://chemins.be/saintvaast/chemin/Lv90"/><trkseg>
<trkpt lat="50.453217" lon="4.155494"><time>2026-05-03T06:14:09Z</time></trkpt>
<trkpt lat="50.453667" lon="4.155354"><time>2026-05-03T06:24:09Z</time></trkpt>
<trkpt lat="50.454107" lon="4.155634"><time>2026-05-03T06:34:09Z</time></trkpt>
<trkpt lat="50.454577" lon="4.156404"><time>2026-05-03T06:44:09Z</time></trkpt>
<trkpt lat="50.455287" lon="4.159834"><time>2026-05-03T06:54:09Z</time></trkpt>
</trkseg></trk>
<trk>
<name>hllsvLv90</name>
<cmt>r</cmt>
<desc>Saint-Vaast Chemin n°Lv90 Pré-RAVeL / Rue Omer Thiriar / Pré-RAVeL L90 ou 422 / RAVeL</desc>
<link href="https://chemins.be/saintvaast/chemin/Lv90"/><trkseg>
<trkpt lat="50.455287" lon="4.159834"><time>2026-05-03T06:54:09Z</time></trkpt>
<trkpt lat="50.455707" lon="4.160664"><time>2026-05-03T07:04:09Z</time></trkpt>
</trkseg></trk>
<trk>
<name>hllsvLv90</name>
<cmt>v</cmt>
<desc>Saint-Vaast Chemin n°Lv90 Pré-RAVeL / Rue Omer Thiriar / Pré-RAVeL L90 ou 422 / RAVeL</desc>
<link href="https://chemins.be/saintvaast/chemin/Lv90"/><trkseg>
<trkpt lat="50.455707" lon="4.160664"><time>2026-05-03T07:04:09Z</time></trkpt>
<trkpt lat="50.455697" lon="4.160664"><time>2026-05-03T07:14:09Z</time></trkpt>
<trkpt lat="50.456377" lon="4.162114"><time>2026-05-03T07:24:09Z</time></trkpt>
<trkpt lat="50.456517" lon="4.162494"><time>2026-05-03T07:34:09Z</time></trkpt>
<trkpt lat="50.456617" lon="4.162874"><time>2026-05-03T07:44:09Z</time></trkpt>
<trkpt lat="50.456657" lon="4.163084"><time>2026-05-03T07:54:09Z</time></trkpt>
<trkpt lat="50.456677" lon="4.163464"><time>2026-05-03T08:04:09Z</time></trkpt>
<trkpt lat="50.456647" lon="4.164154"><time>2026-05-03T08:14:09Z</time></trkpt>
<trkpt lat="50.456557" lon="4.164814"><time>2026-05-03T08:24:09Z</time></trkpt>
<trkpt lat="50.456527" lon="4.165154"><time>2026-05-03T08:34:09Z</time></trkpt>
<trkpt lat="50.456507" lon="4.165604"><time>2026-05-03T08:44:09Z</time></trkpt>
<trkpt lat="50.456517" lon="4.166024"><time>2026-05-03T08:54:09Z</time></trkpt>
<trkpt lat="50.456557" lon="4.166434"><time>2026-05-03T09:04:09Z</time></trkpt>
<trkpt lat="50.456617" lon="4.166754"><time>2026-05-03T09:14:09Z</time></trkpt>
<trkpt lat="50.457247" lon="4.169244"><time>2026-05-03T09:24:09Z</time></trkpt>
<trkpt lat="50.457547" lon="4.170704"><time>2026-05-03T09:34:09Z</time></trkpt>
<trkpt lat="50.457666" lon="4.171104"><time>2026-05-03T09:44:09Z</time></trkpt>
<trkpt lat="50.457907" lon="4.171564"><time>2026-05-03T09:54:09Z</time></trkpt>
<trkpt lat="50.458107" lon="4.171814"><time>2026-05-03T10:04:09Z</time></trkpt>
<trkpt lat="50.458257" lon="4.171964"><time>2026-05-03T10:14:09Z</time></trkpt>
<trkpt lat="50.458647" lon="4.172284"><time>2026-05-03T10:24:09Z</time></trkpt>
<trkpt lat="50.458717" lon="4.172314"><time>2026-05-03T10:34:09Z</time></trkpt>
<trkpt lat="50.458997" lon="4.172354"><time>2026-05-03T10:44:09Z</time></trkpt>
<trkpt lat="50.459287" lon="4.172334"><time>2026-05-03T10:54:09Z</time></trkpt>
<trkpt lat="50.459407" lon="4.172304"><time>2026-05-03T11:04:09Z</time></trkpt>
<trkpt lat="50.459657" lon="4.172214"><time>2026-05-03T11:14:09Z</time></trkpt>
<trkpt lat="50.460147" lon="4.171984"><time>2026-05-03T11:24:09Z</time></trkpt>
</trkseg></trk>
<trk>
<name>hllsvLv90</name>
<cmt>r</cmt>
<desc>Saint-Vaast Chemin n°Lv90 Pré-RAVeL / Rue Omer Thiriar / Pré-RAVeL L90 ou 422 / RAVeL</desc>
<link href="https://chemins.be/saintvaast/chemin/Lv90"/><trkseg>
<trkpt lat="50.460147" lon="4.171984"><time>2026-05-03T11:24:09Z</time></trkpt>
<trkpt lat="50.460147" lon="4.172014"><time>2026-05-03T11:34:09Z</time></trkpt>
<trkpt lat="50.460317" lon="4.171814"><time>2026-05-03T11:44:09Z</time></trkpt>
</trkseg></trk>
<trk>
<name>hllsvLv90</name>
<cmt>v</cmt>
<desc>Saint-Vaast Chemin n°Lv90 Pré-RAVeL / Rue Omer Thiriar / Pré-RAVeL L90 ou 422 / RAVeL</desc>
<link href="https://chemins.be/saintvaast/chemin/Lv90"/><trkseg>
<trkpt lat="50.460317" lon="4.171814"><time>2026-05-03T11:44:09Z</time></trkpt>
<trkpt lat="50.460747" lon="4.172014"><time>2026-05-03T11:54:09Z</time></trkpt>
<trkpt lat="50.461497" lon="4.172884"><time>2026-05-03T12:04:09Z</time></trkpt>
<trkpt lat="50.462695" lon="4.177358"><time>2026-05-03T12:14:09Z</time></trkpt>
</trkseg></trk>
<trk>
<name>hllsvLv90</name>
<cmt>q</cmt>
<desc>Saint-Vaast Chemin n°Lv90 Pré-RAVeL / Rue Omer Thiriar / Pré-RAVeL L90 ou 422 / RAVeL</desc>
<link href="https://chemins.be/saintvaast/chemin/Lv90"/><trkseg>
<trkpt lat="50.462695" lon="4.177358"><time>2026-05-03T12:14:09Z</time></trkpt>
<trkpt lat="50.467317" lon="4.180145"><time>2026-05-03T12:24:09Z</time></trkpt>
</trkseg>
</trk>
<trk>
<name>hllsvp1</name>
<cmt>q</cmt>
<desc>Saint-Vaast Chemin particulier n°p1 </desc>
<link href="https://chemins.be/saintvaast/chemin/p1"/><trkseg>
<trkpt lat="50.452607" lon="4.166661"><time>2026-05-03T06:14:09Z</time></trkpt>
<trkpt lat="50.450591" lon="4.169215"><time>2026-05-03T06:24:09Z</time></trkpt>
</trkseg>
</trk>
</gpx>